Wind_Speed
46 48 50 47 49 50 51 53 53 52 50 55 53 49 51 53 46 37 40 39 40 41 39 42 42 41 40 38 37 35 35 36 37 38 40 40 39 37 37 36 37 39 39 41
49 52 52 52 50 53 53 54 56 55 54 57 55 58 54 52 53 49 42 40 41 42 41 39 41 40 36 37 40 37 35 36 36 37 38 39 41 41 41 41 41 41 41 41
54 56 58 56 56 55 54 58 59 60 59 59 62 60 59 58 50 51 43 42 42 41 39 37 36 39 42 38 36 38 39 38 38 39 39 40 42 42 44 44 44 44 46 47
51 51 53 58 56 56 58 53 56 60 60 62 65 68 62 63 60 62 58 52 50 46 43 45 43 43 43 45 45 46 46 46 38 36 38 40 41 42 43 44 46 47 48 49
47 48 48 49 51 50 52 54 57 60 65 66 65 67 67 60 63 63 60 56 39 21 22 30 38 43 46 48 47 46 45 44 42 47 48 46 46 49 51 51 50 51 52 54
46 48 47 47 48 50 54 55 55 56 57 59 59 60 64 59 61 61 58 43 28 28 43 41 46 44 49 50 48 44 45 53 58 54 50 49 48 49 50 51 52 54 56 56
50 49 50 49 47 48 52 54 57 58 59 57 58 59 59 56 58 56 54 51 53 50 41 43 46 43 48 56 52 55 59 56 61 61 60 58 52 53 52 55 58 58 57 59
50 48 46 47 47 50 53 50 54 58 58 58 58 60 64 64 61 60 60 60 56 51 44 45 42 43 51 60 59 63 69 66 72 67 66 66 60 56 58 56 60 62 62 60
55 57 59 59 57 59 57 56 58 59 58 60 60 62 62 65 65 67 67 70 68 66 61 60 61 58 55 62 67 63 60 63 69 74 70 66 70 74 72 67 66 65 65 65
55 55 54 55 60 59 52 51 55 60 64 67 66 63 61 63 65 71 72 67 63 64 62 55 54 57 57 55 55 55 60 65 72 66 69 72 81 78 78 77 75 74 72 70
52 53 53 54 52 48 53 55 57 58 61 65 66 66 59 61 65 66 68 72 72 75 75 72 70 73 70 69 73 73 73 71 75 82 80 81 79 80 80 80 79 79 78 74
57 57 56 54 50 52 55 57 57 61 62 62 64 64 49 58 64 67 72 75 78 81 80 76 80 78 73 75 78 80 81 82 83 82 81 80 80 79 78 78 78 78 81 84
57 59 60 60 56 56 55 55 57 59 57 56 55 55 56 62 65 70 76 74 72 75 78 79 80 77 78 82 81 80 84 83 82 84 84 84 83 83 83 80 78 78 78 83
58 59 59 60 61 60 59 55 55 57 62 59 57 58 53 49 53 57 62 71 68 73 76 74 78 83 88 92 88 84 87 87 89 90 91 89 87 86 81 82 82 77 77 78
60 62 62 64 63 62 62 62 60 62 63 68 68 70 67 70 74 72 64 65 76 83 87 89 97 94 99 100 99 95 95 97 98 99 97 95 93 91 93 86 86 83 82 82
61 63 64 65 62 65 69 66 66 68 69 74 77 81 76 80 81 85 93 99 103 102 100 101 102 103 100 98 100 101 101 99 99 99 99 99 99 99 96 96 95 94 94 92
62 63 66 71 67 71 77 71 74 77 76 77 81 81 82 85 86 87 90 92 92 92 92 93 95 96 96 97 98 98 99 100 100 101 102 104 108 109 109 108 106 106 104 100
65 66 69 75 73 80 77 79 81 81 81 77 74 74 72 73 75 78 80 79 81 81 81 83 87 90 92 94 96 99 101 103 106 107 108 109 110 110 110 112 113 114 119 117
66 69 73 76 79 83 81 78 77 75 74 68 67 65 65 66 68 65 66 70 69 71 72 75 79 81 84 87 90 91 93 98 102 104 105 106 106 108 109 110 111 115 119 119
70 71 74 78 81 83 81 75 69 62 68 61 60 61 62 64 65 60 59 61 63 64 65 68 69 70 72 75 79 82 83 84 86 89 91 93 95 96 97 98 98 99 101 103
71 72 75 77 77 79 74 70 63 62 58 57 57 57 57 57 57 56 54 56 59 60 61 63 65 66 69 73 76 77 80 84 86 87 87 89 91 94 95 96 95 95 95 96
70 72 75 72 70 68 66 62 57 55 54 54 55 55 57 57 56 56 57 58 60 61 62 64 66 68 70 74 77 78 80 83 86 87 87 88 90 91 93 95 94 96 96 97
68 66 67 67 64 59 58 56 53 53 54 53 54 54 55 55 57 59 60 60 61 62 64 65 67 68 68 71 74 76 79 83 84 84 86 87 86 86 86 87 87 87 88 90
64 60 62 59 56 51 51 52 51 50 53 52 53 53 55 57 57 58 59 60 60 60 60 62 64 67 67 70 73 76 79 81 81 80 79 79 77 74 72 71 70 69 67 67
54 53 52 57 51 49 50 49 50 51 51 52 53 54 56 58 58 59 58 56 55 56 58 61 63 65 66 68 70 71 73 73 72 70 67 65 62 61 61 63 64 64 63 62
47 47 52 53 48 50 50 48 48 51 52 53 53 54 56 58 59 57 55 53 53 55 58 60 62 63 63 62 60 61 61 64 64 60 56 56 57 59 60 56 56 59 59 59
Wind_Direction
276 279 280 278 275 277 279 280 283 283 284 284 282 283 286 293 287 281 281 280 276 269 267 271 272 275 278 273 266 263 264 263 263 264 265 266 266 262 260 259 256 258 260 264
278 278 279 279 278 276 277 279 278 280 281 281 284 285 290 286 292 293 283 280 278 270 265 267 273 276 271 267 266 264 260 259 261 264 265 265 263 262 260 258 257 257 258 260
273 274 276 275 274 273 274 276 279 281 281 280 283 286 286 290 292 288 286 278 274 275 274 268 266 270 272 264 258 259 266 259 256 260 261 263 263 263 263 262 259 256 257 260
273 272 271 273 274 274 274 273 274 276 278 281 284 285 286 289 290 285 284 289 290 282 274 266 266 266 267 265 265 260 259 258 255 253 261 263 263 262 265 266 264 260 261 262
276 274 271 271 272 272 272 272 272 275 277 280 282 286 287 289 286 287 289 293 290 265 253 261 259 271 265 261 257 257 253 242 258 271 267 264 263 264 266 266 264 260 261 262
278 277 274 273 272 273 274 275 277 279 278 278 282 283 284 287 286 288 292 287 260 255 276 266 256 273 267 254 248 250 261 264 269 270 264 260 260 261 262 261 261 261 262 262
286 281 278 275 274 276 278 280 279 277 279 283 280 279 281 281 285 288 287 284 280 283 270 258 256 253 255 246 248 256 266 269 269 270 269 263 259 261 259 259 258 256 257 260
285 278 274 277 276 281 281 275 275 277 275 271 272 277 283 283 283 282 280 279 281 278 266 255 246 248 251 244 247 252 266 269 267 263 263 265 261 270 266 258 255 258 259 259
282 282 284 286 283 287 289 284 280 282 281 283 276 276 278 277 276 279 287 287 284 281 277 278 278 274 270 261 262 265 259 254 262 265 262 257 263 269 271 270 269 265 262 262
284 284 285 286 291 293 293 285 286 287 285 284 278 277 280 283 282 287 288 288 283 286 284 281 275 275 273 261 263 264 254 249 244 249 255 260 273 273 273 271 271 271 268 264
287 285 288 288 292 285 279 278 279 278 276 279 282 287 290 287 283 285 281 279 280 281 281 278 271 274 271 266 267 266 264 258 257 263 266 267 267 266 267 268 268 268 268 265
286 284 283 285 285 282 280 281 280 280 282 280 279 278 278 274 275 271 268 268 271 274 274 271 271 272 267 269 273 271 267 266 266 266 268 270 271 269 267 264 263 262 262 265
283 281 285 289 288 284 278 277 277 278 277 280 279 275 274 278 275 271 269 269 268 267 268 270 270 272 275 278 278 273 273 272 269 271 275 275 274 274 272 268 264 262 260 258
281 282 286 285 288 285 281 280 281 280 275 273 264 271 276 279 266 261 261 261 261 263 263 263 266 269 274 276 276 270 270 271 272 275 278 277 276 274 269 266 265 263 262 263
280 281 280 280 281 279 277 277 278 276 279 276 282 277 278 273 261 267 264 261 266 266 267 269 273 275 276 276 276 275 274 272 272 275 276 276 275 274 270 263 262 261 263 266
278 280 278 279 279 279 278 280 282 280 281 280 279 278 277 270 268 265 265 264 268 273 272 271 272 274 276 275 274 275 276 275 275 274 273 273 272 272 271 269 264 266 265 265
280 280 281 281 283 281 279 288 284 283 283 282 279 278 276 273 272 271 270 270 271 271 272 272 273 273 273 274 275 276 277 278 278 278 277 275 273 271 271 270 267 263 272 273
282 284 283 285 285 283 290 287 288 288 287 284 283 282 280 278 275 275 276 275 275 276 276 276 276 276 277 277 277 278 278 278 279 279 280 280 279 276 273 271 271 270 270 271
283 283 284 284 286 288 288 290 290 289 287 285 285 283 281 279 278 278 278 278 279 278 277 278 278 278 279 279 280 280 279 279 279 279 279 279 279 279 278 278 276 274 272 271
283 283 285 288 290 290 292 293 291 290 286 289 285 282 281 282 282 283 280 280 280 280 280 280 280 280 281 281 282 282 283 283 282 281 281 281 281 280 279 278 276 275 274 274
284 284 285 288 289 289 291 290 287 285 291 283 284 284 284 284 284 286 283 282 283 284 285 284 285 285 285 285 285 285 285 285 284 284 283 282 281 281 281 280 279 277 275 274
284 287 289 287 285 284 290 286 286 286 285 282 284 285 286 287 290 290 290 290 290 290 290 290 290 289 288 288 289 289 289 289 288 288 287 286 284 283 282 281 280 279 277 274
284 286 285 281 284 287 286 284 285 282 280 281 282 284 286 289 290 292 293 292 292 292 292 291 291 292 293 294 294 293 291 290 291 291 290 290 289 287 285 283 281 280 279 278
283 290 279 282 283 284 279 281 281 280 281 281 283 285 287 289 292 292 292 293 293 293 293 294 295 296 297 296 295 293 294 293 293 293 292 292 292 291 289 288 288 287 285 282
286 283 287 282 286 282 278 278 279 279 281 284 285 287 289 290 291 291 291 291 292 294 294 295 297 299 299 296 296 295 294 295 294 296 296 295 293 291 290 290 288 285 284 285
286 285 284 288 288 283 281 280 283 284 287 286 287 288 290 291 290 290 289 292 294 293 295 300 304 304 302 302 299 297 297 296 299 301 300 298 297 293 295 294 293 290 286 282
Height
5794 5791 5788 5791 5787 5786 5784 5780 5778 5779 5779 5773 5773 5775 5772 5770 5772 5776 5773 5773 5772 5771 5769 5767 5765 5765 5765 5765 5766 5767 5766 5766 5765 5764 5764 5765 5766 5767 5768 5769 5769 5769 5769 5768
5784 5781 5779 5778 5779 5775 5774 5771 5767 5767 5765 5762 5763 5759 5764 5764 5763 5761 5763 5761 5761 5759 5760 5760 5759 5757 5755 5755 5756 5756 5757 5757 5756 5756 5755 5755 5755 5756 5756 5756 5757 5758 5759 5759
5773 5771 5767 5768 5765 5766 5766 5761 5760 5757 5755 5753 5748 5749 5748 5750 5751 5749 5751 5751 5749 5750 5753 5752 5750 5748 5746 5745 5745 5746 5746 5746 5746 5746 5746 5746 5746 5746 5746 5746 5746 5747 5746 5747
5760 5759 5758 5754 5754 5754 5753 5753 5749 5746 5744 5742 5739 5736 5741 5738 5738 5732 5735 5735 5735 5741 5741 5741 5740 5739 5737 5736 5735 5735 5735 5736 5735 5735 5735 5735 5735 5735 5735 5736 5735 5736 5735 5734
5747 5747 5747 5747 5744 5742 5742 5739 5738 5738 5734 5730 5729 5726 5723 5726 5721 5721 5721 5722 5724 5724 5726 5729 5729 5729 5727 5724 5723 5722 5722 5723 5723 5723 5722 5723 5723 5723 5723 5724 5725 5724 5724 5723
5737 5735 5735 5736 5734 5732 5730 5727 5725 5722 5721 5720 5720 5717 5715 5711 5709 5710 5711 5712 5713 5712 5714 5715 5715 5716 5715 5714 5711 5711 5712 5714 5712 5711 5711 5710 5709 5709 5708 5709 5710 5710 5710 5710
5724 5726 5725 5724 5722 5721 5720 5718 5713 5712 5709 5711 5707 5707 5706 5702 5703 5702 5702 5700 5700 5700 5700 5700 5698 5698 5700 5700 5699 5699 5698 5698 5696 5696 5696 5695 5694 5694 5693 5692 5693 5693 5695 5696
5711 5715 5713 5713 5713 5710 5706 5708 5704 5698 5699 5699 5699 5697 5695 5693 5694 5692 5690 5689 5687 5688 5689 5688 5687 5686 5686 5686 5683 5684 5686 5683 5678 5676 5676 5676 5676 5677 5677 5677 5677 5677 5677 5678
5699 5700 5698 5700 5701 5697 5695 5694 5691 5685 5684 5678 5686 5690 5686 5682 5683 5679 5675 5673 5673 5673 5671 5671 5671 5669 5669 5669 5666 5663 5663 5664 5664 5662 5657 5655 5656 5656 5657 5657 5658 5660 5659 5659
5684 5684 5688 5685 5685 5683 5678 5676 5675 5671 5665 5662 5672 5676 5675 5673 5671 5663 5660 5658 5655 5654 5651 5651 5652 5651 5650 5649 5646 5644 5641 5640 5639 5640 5642 5640 5639 5636 5635 5635 5636 5636 5636 5638
5668 5665 5674 5670 5675 5670 5662 5661 5660 5657 5653 5645 5647 5653 5664 5658 5647 5648 5645 5639 5638 5635 5634 5632 5632 5631 5630 5629 5626 5626 5626 5625 5624 5621 5620 5619 5620 5619 5617 5614 5613 5613 5613 5613
5651 5646 5648 5658 5662 5652 5647 5646 5644 5636 5636 5630 5628 5630 5652 5636 5631 5629 5623 5622 5621 5617 5611 5609 5607 5605 5604 5604 5602 5601 5601 5600 5598 5597 5594 5593 5593 5593 5593 5592 5593 5593 5592 5590
5638 5632 5629 5634 5643 5635 5631 5632 5630 5626 5622 5617 5614 5614 5619 5621 5616 5607 5602 5602 5599 5594 5591 5588 5584 5582 5581 5580 5579 5577 5574 5573 5572 5569 5568 5567 5567 5566 5565 5565 5566 5566 5567 5568
5622 5621 5619 5613 5616 5616 5610 5612 5614 5610 5601 5599 5599 5598 5604 5605 5593 5581 5582 5579 5575 5572 5569 5565 5563 5561 5558 5557 5556 5553 5550 5547 5546 5544 5543 5542 5540 5540 5539 5539 5539 5539 5539 5541
5606 5604 5604 5600 5598 5595 5594 5593 5601 5593 5588 5578 5581 5580 5586 5585 5575 5569 5562 5559 5556 5553 5549 5545 5540 5536 5533 5528 5525 5524 5523 5522 5519 5518 5515 5514 5513 5512 5512 5512 5512 5512 5512 5512
5591 5587 5585 5582 5584 5576 5569 5579 5579 5574 5572 5563 5557 5551 5561 5551 5551 5549 5543 5541 5536 5532 5527 5522 5517 5512 5506 5502 5499 5496 5492 5490 5488 5488 5487 5486 5484 5484 5484 5483 5483 5482 5482 5482
5574 5571 5566 5558 5563 5556 5548 5566 5553 5549 5551 5544 5530 5530 5528 5524 5521 5522 5517 5513 5510 5506 5501 5496 5491 5488 5484 5478 5473 5469 5466 5463 5460 5457 5456 5454 5453 5452 5452 5451 5451 5451 5449 5449
5556 5553 5545 5537 5539 5527 5542 5537 5528 5522 5521 5515 5508 5502 5499 5498 5497 5498 5491 5487 5485 5483 5481 5475 5468 5464 5459 5455 5450 5446 5441 5436 5429 5426 5420 5418 5416 5416 5417 5416 5416 5415 5412 5413
5540 5535 5525 5519 5515 5508 5520 5514 5506 5496 5496 5491 5485 5481 5478 5475 5474 5481 5470 5465 5466 5461 5458 5453 5449 5445 5439 5430 5424 5420 5416 5411 5404 5398 5394 5390 5386 5381 5378 5377 5377 5376 5372 5376
5522 5517 5507 5500 5491 5484 5491 5490 5482 5476 5467 5472 5466 5463 5459 5455 5453 5461 5455 5448 5444 5440 5437 5432 5429 5425 5419 5410 5403 5396 5391 5386 5379 5373 5368 5361 5356 5349 5346 5345 5343 5341 5336 5334
5502 5498 5490 5485 5471 5464 5467 5469 5464 5458 5460 5452 5449 5446 5442 5439 5437 5438 5437 5432 5427 5422 5419 5415 5410 5405 5398 5390 5383 5378 5369 5359 5352 5347 5344 5338 5330 5321 5315 5310 5309 5305 5303 5300
5481 5478 5472 5462 5456 5452 5455 5447 5447 5443 5439 5436 5432 5430 5425 5423 5421 5418 5416 5413 5408 5405 5399 5394 5390 5385 5378 5368 5361 5356 5347 5335 5326 5319 5314 5308 5300 5294 5286 5278 5274 5268 5263 5261
5461 5467 5451 5443 5438 5442 5436 5430 5431 5427 5422 5423 5417 5416 5412 5409 5406 5402 5398 5395 5390 5385 5380 5374 5369 5364 5357 5348 5338 5330 5322 5311 5303 5295 5285 5276 5269 5261 5254 5246 5242 5237 5231 5226
5441 5450 5426 5427 5431 5429 5421 5418 5413 5411 5407 5408 5404 5402 5398 5393 5391 5387 5382 5377 5372 5367 5362 5356 5351 5345 5339 5329 5318 5307 5297 5287 5279 5270 5261 5251 5241 5234 5227 5220 5214 5209 5205 5201
5431 5423 5419 5407 5414 5410 5406 5404 5400 5396 5395 5393 5389 5386 5383 5379 5376 5371 5367 5362 5357 5352 5346 5340 5334 5328 5319 5309 5299 5287 5276 5266 5257 5248 5240 5231 5223 5216 5209 5202 5195 5189 5184 5179
5418 5411 5401 5396 5400 5391 5390 5393 5387 5381 5380 5378 5375 5372 5368 5364 5360 5356 5351 5347 5342 5337 5331 5326 5318 5309 5299 5290 5281 5269 5260 5250 5241 5233 5223 5214 5206 5198 5191 5185 5179 5169 5163 5160